Weather History for Honolulu, HI

Change the Weather History Date:

Wednesday, March 27, 2013

  Actual Average Record
Temperature  
Mean Temperature 73 °F 75 °F  
Max Temperature 78 °F 82 °F 87 °F (1983)
Min Temperature 68 °F 69 °F 58 °F (1965)
Degree Days  
Heating Degree Days 0 0  
Month to date heating degree days 0 0  
Since 1 July heating degree days 0 0  
Cooling Degree Days 8 10  
Month to date cooling degree days 221 253  
Year to date cooling degree days 719 735  
Growing Degree Days 24 (Base 50)    
Moisture  
Dew Point 67 °F    
Average Humidity 81    
Maximum Humidity 93    
Minimum Humidity 69    
Precipitation  
Precipitation 0.33 in 0.06 in 0.87 in (1951)
Month to date precipitation 2.90 1.80  
Year to date precipitation 5.97 6.10  
Snow  
Snow 0.00 in - - ()
Month to date snowfall 0.0  
Since 1 July snowfall 0.0  
Snow Depth 0.00 in    
Sea Level Pressure  
Sea Level Pressure 30.00 in    
Wind  
Wind Speed 5 mph (NNE)    
Max Wind Speed 18 mph    
Max Gust Speed 28 mph    
Visibility 9 miles    
Events Rain    
T = Trace of Precipitation, MM = Missing Value Source: NWS Daily Summary

Daily Weather History Graph

Daily Weather History Graph

Search for Another Location

Airport:

Trip Planner

Search our weather history database for the weather conditions in past years. The results will help you decide how hot, cold, wet, or windy it might be!

Date:

Astronomy

Mar. 27, 2013 Rise Set
Actual Time 6:28 AM HST 6:45 PM HST
Civil Twilight 6:06 AM HST 7:07 PM HST
Nautical Twilight 5:40 AM HST 7:33 PM HST
Astronomical Twilight 5:14 AM HST 7:59 PM HST
Moon 7:29 PM HST (3/27) 6:34 AM HST (3/27)
Length of Visible Light 13h 00m
Length of Day
12h 16m
Full, 100% of the Moon is Illuminated
Mar 27
Full
Apr 2
Last Quarter
Apr 9
New
Apr 18
First Quarter
Apr 25
Full

Hourly Weather History & Observations

Time (HST) Temp. Dew Point Humidity Pressure Visibility Wind Dir Wind Speed Gust Speed Precip Events Conditions
12:53 AM 70.0 °F 66.0 °F 87% 30.01 in 10.0 mi NNE 3.5 mph - N/A   Partly Cloudy
1:53 AM 70.0 °F 66.0 °F 87% 29.99 in 10.0 mi North 4.6 mph - N/A   Partly Cloudy
2:53 AM 70.0 °F 66.0 °F 87% 29.97 in 10.0 mi NNW 5.8 mph - N/A   Partly Cloudy
3:53 AM 70.0 °F 66.0 °F 87% 29.95 in 10.0 mi North 3.5 mph - N/A   Scattered Clouds
4:53 AM 70.0 °F 64.9 °F 84% 29.96 in 10.0 mi NNW 5.8 mph - N/A   Scattered Clouds
5:53 AM 69.8 °F 64.4 °F 83% 29.96 in - North - - N/A   Scattered Clouds
6:53 AM 71.1 °F 65.1 °F 81% 29.98 in 10.0 mi NW 4.6 mph - N/A   Mostly Cloudy
7:53 AM 72.0 °F 65.8 °F 81% 30.01 in 7.0 mi NW 5.8 mph - N/A Rain Light Rain
8:53 AM 73.6 °F 66.7 °F 79% 30.02 in 10.0 mi NNW 5.8 mph - N/A   Mostly Cloudy
9:53 AM 74.5 °F 68.4 °F 81% 30.03 in 10.0 mi NW 4.6 mph - N/A   Scattered Clouds
10:53 AM 77.0 °F 66.9 °F 71% 30.02 in 10.0 mi Calm Calm - N/A   Scattered Clouds
11:14 AM 75.2 °F 68.0 °F 78% 30.02 in 10.0 mi East 18.4 mph 27.6 mph N/A   Overcast
11:53 AM 73.0 °F 72.0 °F 96% 30.02 in 10.0 mi Variable 4.6 mph - 0.25 in Rain Light Rain
12:53 PM 75.0 °F 72.0 °F 90% 30.01 in 5.0 mi NE 10.4 mph 19.6 mph N/A Rain Light Rain
1:04 PM 71.6 °F 71.6 °F 100% 30.00 in 3.0 mi North 9.2 mph - 0.04 in Rain Heavy Rain
1:25 PM 73.4 °F 71.6 °F 94% 29.98 in 7.0 mi North 6.9 mph - 0.08 in Rain Light Rain
1:53 PM 73.9 °F 70.0 °F 87% 29.98 in 10.0 mi NE 9.2 mph - 0.08 in   Mostly Cloudy
2:53 PM 75.0 °F 69.1 °F 82% 29.97 in 10.0 mi NNE 8.1 mph - 0.00 in   Mostly Cloudy
3:00 PM 73.4 °F 69.8 °F 88% 29.97 in 10.0 mi NE 10.4 mph - 0.00 in Rain Light Rain
3:53 PM 75.0 °F 66.0 °F 73% 29.96 in 10.0 mi NE 13.8 mph - 0.00 in   Mostly Cloudy
4:53 PM 73.9 °F 64.9 °F 73% 29.97 in 10.0 mi NNE 11.5 mph - N/A   Mostly Cloudy
5:53 PM 73.9 °F 64.9 °F 73% 29.98 in 10.0 mi NE 6.9 mph - 0.00 in   Mostly Cloudy
6:53 PM 73.0 °F 64.9 °F 76% 30.00 in 10.0 mi NNE 6.9 mph - N/A   Mostly Cloudy
7:00 PM 71.6 °F 64.4 °F 78% 30.00 in 10.0 mi NE 4.6 mph - N/A   Mostly Cloudy
7:53 PM 71.1 °F 64.9 °F 81% 30.01 in 10.0 mi NE 9.2 mph - N/A   Mostly Cloudy
8:08 PM 71.6 °F 64.4 °F 78% 30.01 in 10.0 mi ENE 9.2 mph - N/A   Mostly Cloudy
8:53 PM 72.0 °F 64.0 °F 76% 30.04 in 10.0 mi ENE 8.1 mph - N/A   Mostly Cloudy
9:00 PM 71.6 °F 64.4 °F 78% 30.03 in 10.0 mi ENE 8.1 mph - N/A   Mostly Cloudy
9:53 PM 72.0 °F 64.0 °F 76% 30.04 in 10.0 mi NNE 5.8 mph - N/A   Mostly Cloudy
10:17 PM 71.6 °F 64.4 °F 78% 30.05 in 10.0 mi NE 6.9 mph - N/A   Mostly Cloudy
10:53 PM 71.1 °F 64.0 °F 78% 30.05 in 10.0 mi NNE 6.9 mph - N/A   Mostly Cloudy
11:53 PM 71.1 °F 64.0 °F 78% 30.04 in 10.0 mi NNE 3.5 mph - N/A   Mostly Cloudy